Date String (YYYY-MM-DD hh:mm:ss) UTC,Instrument flags,Ambient pressure (hPa),Sample flow (lpm),Bypass flow (lpm),Sample temperature (°C),Ambient temperature (°C),ASC tube jacket temperature (°C),LED temperature (°C),Box temperature (°C),Sample RH (%),Span deviation,Mass concentration (μg/m³),Mass concentration (μg/m³),Mass concentration (μg/m³)
DateTimeUTC,F1_M11,P_M11,Q1_M11,Q2_M11,T1_M11,T2_M11,T3_M11,T4_M11,T5_M11,U1_M11,ZSPAN_M11,X0_M11,X2_M11,X1_M11
2022-07-01 00:00:00,,0827.6,5.01,0.00,29.5,28.4,00.0,38.3,31.5,19.9,0000.0,0005.42,0002.73,0001.69
2022-07-01 00:01:00,,0827.7,5.00,0.00,29.5,28.4,00.0,38.3,31.5,20.6,0000.0,0005.42,0002.78,0001.70
2022-07-01 00:02:00,,0827.7,5.00,0.00,29.5,28.5,00.0,38.3,31.5,21.0,0000.0,0005.44,0002.80,0001.71
2022-07-01 00:03:00,,0827.7,5.00,0.00,29.6,28.6,00.0,38.3,31.5,20.9,0000.0,0005.49,0002.80,0001.72
2022-07-01 00:04:00,,0827.7,4.99,0.00,29.6,28.6,00.0,38.3,31.6,21.0,0000.0,0005.64,0002.84,0001.74
2022-07-01 00:05:00,,0827.7,5.00,0.00,29.6,28.3,00.0,38.3,31.5,21.0,0000.0,0005.97,0003.00,0001.76
2022-07-01 00:06:00,,0827.7,5.00,0.00,29.6,27.7,00.0,38.3,31.4,20.9,0000.0,0006.36,0003.13,0001.81
2022-07-01 00:07:00,,0827.7,5.00,0.00,29.6,27.5,00.0,38.2,31.3,21.0,0000.0,0006.35,0003.15,0001.84
2022-07-01 00:08:00,,0827.6,5.00,0.00,29.5,27.5,00.0,38.2,31.3,20.9,0000.0,0006.41,0003.17,0001.87
2022-07-01 00:09:00,,0827.7,5.00,0.00,29.4,27.6,00.0,38.2,31.3,21.2,0000.0,0006.37,0003.20,0001.89
2022-07-01 00:10:00,,0827.7,5.00,0.00,29.4,27.7,00.0,38.2,31.3,21.3,0000.0,0006.67,0003.27,0001.93
2022-07-01 00:11:00,,0827.7,4.99,0.00,29.4,27.8,00.0,38.2,31.3,21.3,0000.0,0007.38,0003.32,0001.95
2022-07-01 00:12:00,,0827.7,5.00,0.00,29.4,27.9,00.0,38.2,31.3,21.7,0000.0,0007.52,0003.32,0001.96
2022-07-01 00:13:00,,0827.7,5.01,0.00,29.4,28.0,00.0,38.2,31.4,22.0,0000.0,0007.55,0003.33,0001.95
2022-07-01 00:14:00,,0827.7,5.00,0.00,29.5,28.2,00.0,38.2,31.4,22.2,0000.0,0007.52,0003.33,0001.95
2022-07-01 00:15:00,,0827.7,5.01,0.00,29.5,28.3,00.0,38.2,31.4,22.3,0000.0,0007.61,0003.36,0001.96
2022-07-01 00:16:00,,0827.7,5.00,0.00,29.5,28.3,00.0,38.2,31.4,22.2,0000.0,0007.60,0003.32,0001.94
2022-07-01 00:17:00,,0827.7,4.99,0.00,29.5,28.4,00.0,38.3,31.5,22.6,0000.0,0007.87,0003.30,0001.91
2022-07-01 00:18:00,,0827.7,5.00,0.00,29.5,28.5,00.0,38.3,31.5,22.9,0000.0,0007.83,0003.27,0001.89
2022-07-01 00:19:00,,0827.7,5.00,0.00,29.6,28.6,00.0,38.3,31.5,23.1,0000.0,0007.84,0003.26,0001.87
2022-07-01 00:20:00,,0827.7,5.00,0.00,29.6,28.6,00.0,38.3,31.6,23.0,0000.0,0007.75,0003.22,0001.84
2022-07-01 00:21:00,,0827.7,5.01,0.00,29.6,28.7,00.0,38.3,31.6,23.3,0000.0,0007.57,0003.15,0001.82
2022-07-01 00:22:00,,0827.7,5.01,0.00,29.6,28.7,00.0,38.3,31.6,22.7,0000.0,0007.22,0003.10,0001.81
2022-07-01 00:23:00,,0827.7,5.00,0.00,29.7,28.5,00.0,38.3,31.6,22.8,0000.0,0007.02,0003.02,0001.78
2022-07-01 00:24:00,,0827.7,5.00,0.00,29.6,27.8,00.0,38.3,31.5,22.7,0000.0,0007.99,0002.94,0001.77
2022-07-01 00:25:00,,0827.7,5.00,0.00,29.6,27.5,00.0,38.3,31.4,23.0,0000.0,0008.03,0002.88,0001.77
2022-07-01 00:26:00,,0827.7,5.00,0.00,29.6,27.5,00.0,38.3,31.3,23.2,0000.0,0008.04,0002.84,0001.76
2022-07-01 00:27:00,,0827.7,4.99,0.00,29.5,27.6,00.0,38.3,31.3,23.0,0000.0,0008.00,0002.82,0001.76
2022-07-01 00:28:00,,0827.7,4.99,0.00,29.5,27.7,00.0,38.3,31.3,23.0,0000.0,0007.78,0002.83,0001.77
2022-07-01 00:29:00,,0827.7,5.00,0.00,29.5,27.8,00.0,38.3,31.3,23.2,0000.0,0007.74,0002.79,0001.77
2022-07-01 00:30:00,,0827.7,5.00,0.00,29.5,28.0,00.0,38.3,31.4,22.9,0000.0,0007.81,0002.85,0001.80
2022-07-01 00:31:00,,0827.8,4.99,0.00,29.5,28.1,00.0,38.3,31.4,22.6,0000.0,0007.82,0002.84,0001.80
2022-07-01 00:32:00,,0827.7,5.00,0.00,29.5,28.2,00.0,38.3,31.4,22.7,0000.0,0007.91,0002.91,0001.81
2022-07-01 00:33:00,,0827.7,5.00,0.00,29.5,28.3,00.0,38.3,31.5,22.5,0000.0,0007.98,0002.95,0001.82
2022-07-01 00:34:00,,0827.7,5.01,0.00,29.5,28.4,00.0,38.3,31.5,22.2,0000.0,0008.06,0003.07,0001.85
2022-07-01 00:35:00,,0827.7,5.00,0.00,29.5,28.5,00.0,38.3,31.5,22.4,0000.0,0007.16,0003.14,0001.87
2022-07-01 00:36:00,,0827.7,5.00,0.00,29.6,28.5,00.0,38.3,31.5,22.5,0000.0,0007.22,0003.19,0001.88
2022-07-01 00:37:00,,0827.7,5.01,0.00,29.6,28.6,00.0,38.3,31.6,22.5,0000.0,0007.35,0003.26,0001.90
2022-07-01 00:38:00,,0827.8,5.00,0.00,29.6,28.7,00.0,38.3,31.6,22.2,0000.0,0007.42,0003.28,0001.91
2022-07-01 00:39:00,,0827.7,5.00,0.00,29.7,28.7,00.0,38.4,31.6,22.2,0000.0,0007.51,0003.31,0001.93
2022-07-01 00:40:00,,0827.8,5.00,0.00,29.7,28.2,00.0,38.3,31.6,22.4,0000.0,0007.75,0003.33,0001.94
2022-07-01 00:41:00,,0827.7,5.00,0.00,29.6,27.6,00.0,38.3,31.4,22.8,0000.0,0008.27,0003.33,0001.94
2022-07-01 00:42:00,,0827.7,4.99,0.00,29.6,27.5,00.0,38.3,31.4,22.4,0000.0,0008.35,0003.34,0001.96
2022-07-01 00:43:00,,0827.7,5.00,0.00,29.5,27.5,00.0,38.3,31.3,22.5,0000.0,0009.15,0003.34,0001.97
2022-07-01 00:44:00,,0827.7,5.00,0.00,29.5,27.6,00.0,38.3,31.3,22.1,0000.0,0009.08,0003.32,0001.97
2022-07-01 00:45:00,,0827.7,5.00,0.00,29.5,27.8,00.0,38.3,31.3,21.8,0000.0,0008.99,0003.29,0001.95
2022-07-01 00:46:00,,0827.7,4.99,0.00,29.5,27.9,00.0,38.3,31.4,21.4,0000.0,0008.85,0003.25,0001.94
2022-07-01 00:47:00,,0827.8,5.00,0.00,29.5,28.0,00.0,38.3,31.4,21.9,0000.0,0008.93,0003.22,0001.94
2022-07-01 00:48:00,,0827.7,4.99,0.00,29.5,28.1,00.0,38.3,31.4,21.8,0000.0,0009.20,0003.19,0001.94
2022-07-01 00:49:00,,0827.7,4.99,0.00,29.5,28.2,00.0,38.3,31.4,21.5,0000.0,0009.05,0003.16,0001.94
2022-07-01 00:50:00,,0827.7,5.00,0.00,29.5,28.3,00.0,38.3,31.5,20.9,0000.0,0008.95,0003.13,0001.93
2022-07-01 00:51:00,,0827.7,5.01,0.00,29.5,28.4,00.0,38.3,31.5,20.2,0000.0,0008.57,0003.11,0001.91
2022-07-01 00:52:00,,0827.7,5.00,0.00,29.6,28.5,00.0,38.3,31.5,19.9,0000.0,0008.36,0003.07,0001.89
2022-07-01 00:53:00,,0827.7,5.01,0.00,29.6,28.6,00.0,38.3,31.6,19.7,0000.0,0008.37,0003.07,0001.85
2022-07-01 00:54:00,,0827.7,5.00,0.00,29.6,28.6,00.0,38.3,31.6,19.7,0000.0,0007.48,0003.00,0001.82
2022-07-01 00:55:00,,0827.7,5.01,0.00,29.7,28.7,00.0,38.4,31.6,19.6,0000.0,0007.60,0003.01,0001.81
2022-07-01 00:56:00,,0827.7,5.00,0.00,29.7,28.5,00.0,38.4,31.6,19.7,0000.0,0007.54,0002.99,0001.80
2022-07-01 00:57:00,,0827.7,5.00,0.00,29.7,27.8,00.0,38.3,31.5,19.8,0000.0,0007.57,0002.99,0001.80
2022-07-01 00:58:00,,0827.7,5.00,0.00,29.6,27.5,00.0,38.3,31.4,19.7,0000.0,0008.59,0002.98,0001.78
2022-07-01 00:59:00,,0827.7,5.00,0.00,29.6,27.5,00.0,38.3,31.3,20.1,0000.0,0008.44,0002.92,0001.75
